Year,Month,Day,Hour,Minute,Value (Times are PST for temperature in C)
2014,07,10,00,00,15.90
2014,07,10,00,01,15.90
2014,07,10,00,02,15.90
2014,07,10,00,03,15.90
2014,07,10,00,04,15.80
2014,07,10,00,05,15.80
2014,07,10,00,06,15.80
2014,07,10,00,07,15.80
2014,07,10,00,08,15.80
2014,07,10,00,09,15.80
2014,07,10,00,10,15.80
2014,07,10,00,11,15.80
2014,07,10,00,12,15.80
2014,07,10,00,13,15.80
2014,07,10,00,14,15.70
2014,07,10,00,15,15.70
2014,07,10,00,16,15.70
2014,07,10,00,17,15.70
2014,07,10,00,18,15.70
2014,07,10,00,19,15.70
2014,07,10,00,20,15.70
2014,07,10,00,21,15.70
2014,07,10,00,22,15.70
2014,07,10,00,23,15.70
2014,07,10,00,24,15.60
2014,07,10,00,25,15.60
2014,07,10,00,26,15.60
2014,07,10,00,27,15.60
2014,07,10,00,28,15.60
2014,07,10,00,29,15.60
2014,07,10,00,30,15.60
2014,07,10,00,31,15.60
2014,07,10,00,32,15.60
2014,07,10,00,33,15.60
2014,07,10,00,34,15.60
2014,07,10,00,35,15.60
2014,07,10,00,36,15.60
2014,07,10,00,37,15.60
2014,07,10,00,38,15.50
2014,07,10,00,39,15.50
2014,07,10,00,40,15.50
2014,07,10,00,41,15.50
2014,07,10,00,42,15.50
2014,07,10,00,43,15.50
2014,07,10,00,44,15.50
2014,07,10,00,45,15.50
2014,07,10,00,46,15.50
2014,07,10,00,47,15.50
2014,07,10,00,48,15.50
2014,07,10,00,49,15.50
2014,07,10,00,50,15.50
2014,07,10,00,51,15.50
2014,07,10,00,52,15.50
2014,07,10,00,53,15.50
2014,07,10,00,54,15.50
2014,07,10,00,55,15.50
2014,07,10,00,56,15.50
2014,07,10,00,57,15.40
2014,07,10,00,58,15.40
2014,07,10,00,59,15.40
2014,07,10,01,00,15.40
2014,07,10,01,01,15.40
2014,07,10,01,02,15.40
2014,07,10,01,03,15.40
2014,07,10,01,04,15.40
2014,07,10,01,05,15.40
2014,07,10,01,06,15.40
2014,07,10,01,07,15.40
2014,07,10,01,08,15.30
2014,07,10,01,09,15.30
2014,07,10,01,10,15.30
2014,07,10,01,11,15.30
2014,07,10,01,12,15.30
2014,07,10,01,13,15.30
2014,07,10,01,14,15.30
2014,07,10,01,15,15.30
2014,07,10,01,16,15.20
2014,07,10,01,17,15.20
2014,07,10,01,18,15.20
2014,07,10,01,19,15.20
2014,07,10,01,20,15.20
2014,07,10,01,21,15.10
2014,07,10,01,22,15.10
2014,07,10,01,23,15.10
2014,07,10,01,24,15.10
2014,07,10,01,25,15.10
2014,07,10,01,26,15.10
2014,07,10,01,27,15.00
2014,07,10,01,28,15.00
2014,07,10,01,29,15.00
2014,07,10,01,30,15.00
2014,07,10,01,31,14.90
2014,07,10,01,32,14.90
2014,07,10,01,33,14.90
2014,07,10,01,34,14.90
2014,07,10,01,35,14.90
2014,07,10,01,36,14.90
2014,07,10,01,37,14.80
2014,07,10,01,38,14.80
2014,07,10,01,39,14.80
2014,07,10,01,40,14.80
2014,07,10,01,41,14.80
2014,07,10,01,42,14.80
2014,07,10,01,43,14.70
2014,07,10,01,44,14.70
2014,07,10,01,45,14.70
2014,07,10,01,46,14.70
2014,07,10,01,47,14.70
2014,07,10,01,48,14.60
2014,07,10,01,49,14.60
2014,07,10,01,50,14.50
2014,07,10,01,51,14.50
2014,07,10,01,52,14.40
2014,07,10,01,53,14.40
2014,07,10,01,54,14.30
2014,07,10,01,55,14.30
2014,07,10,01,56,14.30
2014,07,10,01,57,14.20
2014,07,10,01,58,14.20
2014,07,10,01,59,14.20
2014,07,10,02,00,14.10
2014,07,10,02,01,14.10
2014,07,10,02,02,14.00
2014,07,10,02,03,14.00
2014,07,10,02,04,14.00
2014,07,10,02,05,13.90
2014,07,10,02,06,13.80
2014,07,10,02,07,13.80
2014,07,10,02,08,13.70
2014,07,10,02,09,13.70
2014,07,10,02,10,13.60
2014,07,10,02,11,13.50
2014,07,10,02,12,13.40
2014,07,10,02,13,13.40
2014,07,10,02,14,13.30
2014,07,10,02,15,13.30
2014,07,10,02,16,13.20
2014,07,10,02,17,13.20
2014,07,10,02,18,13.10
2014,07,10,02,19,13.10
2014,07,10,02,20,13.00
2014,07,10,02,21,13.00
2014,07,10,02,22,12.90
2014,07,10,02,23,12.90
2014,07,10,02,24,12.90
2014,07,10,02,25,12.90
2014,07,10,02,26,12.80
2014,07,10,02,27,12.80
2014,07,10,02,28,12.80
2014,07,10,02,29,12.80
2014,07,10,02,30,12.80
2014,07,10,02,31,12.70
2014,07,10,02,32,12.70
2014,07,10,02,33,12.70
2014,07,10,02,34,12.70
2014,07,10,02,35,12.70
2014,07,10,02,36,12.70
2014,07,10,02,37,12.60
2014,07,10,02,38,12.60
2014,07,10,02,39,12.60
2014,07,10,02,40,12.60
2014,07,10,02,41,12.60
2014,07,10,02,42,12.60
2014,07,10,02,43,12.60
2014,07,10,02,44,12.60
2014,07,10,02,45,12.50
2014,07,10,02,46,12.50
2014,07,10,02,47,12.50
2014,07,10,02,48,12.50
2014,07,10,02,49,12.50
2014,07,10,02,50,12.50
2014,07,10,02,51,12.40
2014,07,10,02,52,12.40
2014,07,10,02,53,12.40
2014,07,10,02,54,12.40
2014,07,10,02,55,12.30
2014,07,10,02,56,12.30
2014,07,10,02,57,12.30
2014,07,10,02,58,12.30
2014,07,10,02,59,12.30
2014,07,10,03,00,12.30
2014,07,10,03,01,12.30
2014,07,10,03,02,12.30
2014,07,10,03,03,12.30
2014,07,10,03,04,12.30
2014,07,10,03,05,12.30
2014,07,10,03,06,12.30
2014,07,10,03,07,12.30
2014,07,10,03,08,12.20
2014,07,10,03,09,12.20
2014,07,10,03,10,12.20
2014,07,10,03,11,12.20
2014,07,10,03,12,12.20
2014,07,10,03,13,12.20
2014,07,10,03,14,12.20
2014,07,10,03,15,12.20
2014,07,10,03,16,12.20
2014,07,10,03,17,12.20
2014,07,10,03,18,12.20
2014,07,10,03,19,12.20
2014,07,10,03,20,12.20
2014,07,10,03,21,12.20
2014,07,10,03,22,12.20
2014,07,10,03,23,12.10
2014,07,10,03,24,12.10
2014,07,10,03,25,12.10
2014,07,10,03,26,12.10
2014,07,10,03,27,12.10
2014,07,10,03,28,12.10
2014,07,10,03,29,12.10
2014,07,10,03,30,12.10
2014,07,10,03,31,12.10
2014,07,10,03,32,12.10
2014,07,10,03,33,12.10
2014,07,10,03,34,12.10
2014,07,10,03,35,12.10
2014,07,10,03,36,12.10
2014,07,10,03,37,12.10
2014,07,10,03,38,12.10
2014,07,10,03,39,12.10
2014,07,10,03,40,12.10
2014,07,10,03,41,12.10
2014,07,10,03,42,12.10
2014,07,10,03,43,12.20
2014,07,10,03,44,12.20
2014,07,10,03,45,12.20
2014,07,10,03,46,12.20
2014,07,10,03,47,12.20
2014,07,10,03,48,12.30
2014,07,10,03,49,12.30
2014,07,10,03,50,12.30
2014,07,10,03,51,12.30
2014,07,10,03,52,12.30
2014,07,10,03,53,12.30
2014,07,10,03,54,12.30
2014,07,10,03,55,12.30
2014,07,10,03,56,12.30
2014,07,10,03,57,12.30
2014,07,10,03,58,12.40
2014,07,10,03,59,12.40
2014,07,10,04,00,12.40
2014,07,10,04,01,12.40
2014,07,10,04,02,12.40
2014,07,10,04,03,12.40
2014,07,10,04,04,12.40
2014,07,10,04,05,12.40
2014,07,10,04,06,12.40
2014,07,10,04,07,12.40
2014,07,10,04,08,12.40
2014,07,10,04,09,12.40
2014,07,10,04,10,12.40
2014,07,10,04,11,12.50
2014,07,10,04,12,12.50
2014,07,10,04,13,12.50
2014,07,10,04,14,12.60
2014,07,10,04,15,12.60
2014,07,10,04,16,12.60
2014,07,10,04,17,12.60
2014,07,10,04,18,12.60
2014,07,10,04,19,12.60
2014,07,10,04,20,12.70
2014,07,10,04,21,12.70
2014,07,10,04,22,12.70
2014,07,10,04,23,12.70
2014,07,10,04,24,12.70
2014,07,10,04,25,12.70
2014,07,10,04,26,12.70
2014,07,10,04,27,12.70
2014,07,10,04,28,12.80
2014,07,10,04,29,12.80
2014,07,10,04,30,12.80
2014,07,10,04,31,12.80
2014,07,10,04,32,12.80
2014,07,10,04,33,12.80
2014,07,10,04,34,12.90
2014,07,10,04,35,12.90
2014,07,10,04,36,12.90
2014,07,10,04,37,12.90
2014,07,10,04,38,12.90
2014,07,10,04,39,12.90
2014,07,10,04,40,12.90
2014,07,10,04,41,13.00
2014,07,10,04,42,13.00
2014,07,10,04,43,13.00
2014,07,10,04,44,13.00
2014,07,10,04,45,13.00
2014,07,10,04,46,13.00
2014,07,10,04,47,12.90
2014,07,10,04,48,12.90
2014,07,10,04,49,12.90
2014,07,10,04,50,12.90
2014,07,10,04,51,12.90
2014,07,10,04,52,12.90
2014,07,10,04,53,12.90
2014,07,10,04,54,12.90
2014,07,10,04,55,12.90
2014,07,10,04,56,12.90
2014,07,10,04,57,12.90
2014,07,10,04,58,12.90
2014,07,10,04,59,12.90
2014,07,10,05,00,12.90
2014,07,10,05,01,12.90
2014,07,10,05,02,12.90
2014,07,10,05,03,12.90
2014,07,10,05,04,13.00
2014,07,10,05,05,12.90
2014,07,10,05,06,12.90
2014,07,10,05,07,13.00
2014,07,10,05,08,12.90
2014,07,10,05,09,13.00
2014,07,10,05,10,12.90
2014,07,10,05,11,12.90
2014,07,10,05,12,12.90
2014,07,10,05,13,12.90
2014,07,10,05,14,12.90
2014,07,10,05,15,12.90
2014,07,10,05,16,12.90
2014,07,10,05,17,12.90
2014,07,10,05,18,12.90
2014,07,10,05,19,12.90
2014,07,10,05,20,12.90
2014,07,10,05,21,12.90
2014,07,10,05,22,12.90
2014,07,10,05,23,12.90
2014,07,10,05,24,12.80
2014,07,10,05,25,12.80
2014,07,10,05,26,12.80
2014,07,10,05,27,12.80
2014,07,10,05,28,12.80
2014,07,10,05,29,12.80
2014,07,10,05,30,12.80
2014,07,10,05,31,12.80
2014,07,10,05,32,12.80
2014,07,10,05,33,12.80
2014,07,10,05,34,12.80
2014,07,10,05,35,12.80
2014,07,10,05,36,12.80
2014,07,10,05,37,12.80
2014,07,10,05,38,12.80
2014,07,10,05,39,12.80
2014,07,10,05,40,12.80
2014,07,10,05,41,12.80
2014,07,10,05,42,12.80
2014,07,10,05,43,12.80
2014,07,10,05,44,12.80
2014,07,10,05,45,12.80
2014,07,10,05,46,12.80
2014,07,10,05,47,12.80
2014,07,10,05,48,12.80
2014,07,10,05,49,12.80
2014,07,10,05,50,12.80
2014,07,10,05,51,12.80
2014,07,10,05,52,12.80
2014,07,10,05,53,12.80
2014,07,10,05,54,12.80
2014,07,10,05,55,12.80
2014,07,10,05,56,12.90
2014,07,10,05,57,12.90
2014,07,10,05,58,12.90
2014,07,10,05,59,12.90
2014,07,10,06,00,12.90
2014,07,10,06,01,12.90
2014,07,10,06,02,12.90
2014,07,10,06,03,12.90
2014,07,10,06,04,12.90
2014,07,10,06,05,12.90
2014,07,10,06,06,13.00
2014,07,10,06,07,13.00
2014,07,10,06,08,13.00
2014,07,10,06,09,13.00
2014,07,10,06,10,13.10
2014,07,10,06,11,13.10
2014,07,10,06,12,13.10
2014,07,10,06,13,13.10
2014,07,10,06,14,13.10
2014,07,10,06,15,13.10
2014,07,10,06,16,13.20
2014,07,10,06,17,13.20
2014,07,10,06,18,13.20
2014,07,10,06,19,13.20
2014,07,10,06,20,13.20
2014,07,10,06,21,13.30
2014,07,10,06,22,13.30
2014,07,10,06,23,13.30
2014,07,10,06,24,13.40
2014,07,10,06,25,13.40
2014,07,10,06,26,13.40
2014,07,10,06,27,13.40
2014,07,10,06,28,13.50
2014,07,10,06,29,13.50
2014,07,10,06,30,13.50
2014,07,10,06,31,13.60
2014,07,10,06,32,13.60
2014,07,10,06,33,13.70
2014,07,10,06,34,13.70
2014,07,10,06,35,13.70
2014,07,10,06,36,13.70
2014,07,10,06,37,13.80
2014,07,10,06,38,13.80
2014,07,10,06,39,13.90
2014,07,10,06,40,13.90
2014,07,10,06,41,14.00
2014,07,10,06,42,14.00
2014,07,10,06,43,14.10
2014,07,10,06,44,14.20
2014,07,10,06,45,14.20
2014,07,10,06,46,14.20
2014,07,10,06,47,14.30
2014,07,10,06,48,14.30
2014,07,10,06,49,14.30
2014,07,10,06,50,14.40
2014,07,10,06,51,14.40
2014,07,10,06,52,14.50
2014,07,10,06,53,14.60
2014,07,10,06,54,14.60
2014,07,10,06,55,14.70
2014,07,10,06,56,14.70
2014,07,10,06,57,14.80
2014,07,10,06,58,14.80
2014,07,10,06,59,14.90
2014,07,10,07,00,15.00
2014,07,10,07,01,15.00
2014,07,10,07,02,15.10
2014,07,10,07,03,15.20
2014,07,10,07,04,15.20
2014,07,10,07,05,15.30
2014,07,10,07,06,15.30
2014,07,10,07,07,15.40
2014,07,10,07,08,15.50
2014,07,10,07,09,15.50
2014,07,10,07,10,15.60
2014,07,10,07,11,15.70
2014,07,10,07,12,15.80
2014,07,10,07,13,15.90
2014,07,10,07,14,16.00
2014,07,10,07,15,16.10
2014,07,10,07,16,16.20
2014,07,10,07,17,16.30
2014,07,10,07,18,16.30
2014,07,10,07,19,16.40
2014,07,10,07,20,16.50
2014,07,10,07,21,16.60
2014,07,10,07,22,16.60
2014,07,10,07,23,16.70
2014,07,10,07,24,16.80
2014,07,10,07,25,16.80
2014,07,10,07,26,16.90
2014,07,10,07,27,16.90
2014,07,10,07,28,17.00
2014,07,10,07,29,17.10
2014,07,10,07,30,17.10
2014,07,10,07,31,17.10
2014,07,10,07,32,17.10
2014,07,10,07,33,17.10
2014,07,10,07,34,17.20
2014,07,10,07,35,17.20
2014,07,10,07,36,17.20
2014,07,10,07,37,17.20
2014,07,10,07,38,17.20
2014,07,10,07,39,17.20
2014,07,10,07,40,17.20
2014,07,10,07,41,17.30
2014,07,10,07,42,17.30
2014,07,10,07,43,17.30
2014,07,10,07,44,17.30
2014,07,10,07,45,17.30
2014,07,10,07,46,17.30
2014,07,10,07,47,17.40
2014,07,10,07,48,17.40
2014,07,10,07,49,17.40
2014,07,10,07,50,17.40
2014,07,10,07,51,17.40
2014,07,10,07,52,17.40
2014,07,10,07,53,17.40
2014,07,10,07,54,17.40
2014,07,10,07,55,17.40
2014,07,10,07,56,17.40
2014,07,10,07,57,17.40
2014,07,10,07,58,17.40
2014,07,10,07,59,17.40
2014,07,10,08,00,17.40
2014,07,10,08,01,17.40
2014,07,10,08,02,17.40
2014,07,10,08,03,17.40
2014,07,10,08,04,17.40
2014,07,10,08,05,17.40
2014,07,10,08,06,17.40
2014,07,10,08,07,17.40
2014,07,10,08,08,17.50
2014,07,10,08,09,17.50
2014,07,10,08,10,17.50
2014,07,10,08,11,17.60
2014,07,10,08,12,17.60
2014,07,10,08,13,17.60
2014,07,10,08,14,17.60
2014,07,10,08,15,17.60
2014,07,10,08,16,17.70
2014,07,10,08,17,17.70
2014,07,10,08,18,17.70
2014,07,10,08,19,17.80
2014,07,10,08,20,17.80
2014,07,10,08,21,17.80
2014,07,10,08,22,17.80
2014,07,10,08,23,17.90
2014,07,10,08,24,17.90
2014,07,10,08,25,17.90
2014,07,10,08,26,18.00
2014,07,10,08,27,18.00
2014,07,10,08,28,18.10
2014,07,10,08,29,18.10
2014,07,10,08,30,18.20
2014,07,10,08,31,18.20
2014,07,10,08,32,18.20
2014,07,10,08,33,18.30
2014,07,10,08,34,18.30
2014,07,10,08,35,18.30
2014,07,10,08,36,18.30
2014,07,10,08,37,18.40
2014,07,10,08,38,18.40
2014,07,10,08,39,18.40
2014,07,10,08,40,18.40
2014,07,10,08,41,18.40
2014,07,10,08,42,18.40
2014,07,10,08,43,18.40
2014,07,10,08,44,18.50
2014,07,10,08,45,18.50
2014,07,10,08,46,18.50
2014,07,10,08,47,18.50
2014,07,10,08,48,18.50
2014,07,10,08,49,18.40
2014,07,10,08,50,18.40
2014,07,10,08,51,18.40
2014,07,10,08,52,18.30
2014,07,10,08,53,18.30
2014,07,10,08,54,18.30
2014,07,10,08,55,18.20
2014,07,10,08,56,18.20
2014,07,10,08,57,18.10
2014,07,10,08,58,18.10
2014,07,10,08,59,18.10
2014,07,10,09,00,18.00
2014,07,10,09,01,18.00
2014,07,10,09,02,18.00
2014,07,10,09,03,18.00
2014,07,10,09,04,18.10
2014,07,10,09,05,18.10
2014,07,10,09,06,18.10
2014,07,10,09,07,18.10
2014,07,10,09,08,18.10
2014,07,10,09,09,18.10
2014,07,10,09,10,18.10
2014,07,10,09,11,18.10
2014,07,10,09,12,18.10
2014,07,10,09,13,18.00
2014,07,10,09,14,18.10
2014,07,10,09,15,18.00
2014,07,10,09,16,18.00
2014,07,10,09,17,18.00
2014,07,10,09,18,18.00
2014,07,10,09,19,18.00
2014,07,10,09,20,18.00
2014,07,10,09,21,18.00
2014,07,10,09,22,18.00
2014,07,10,09,23,18.00
2014,07,10,09,24,18.00
2014,07,10,09,25,18.00
2014,07,10,09,26,18.00
2014,07,10,09,27,18.10
2014,07,10,09,28,18.10
2014,07,10,09,29,18.10
2014,07,10,09,30,18.10
2014,07,10,09,31,18.20
2014,07,10,09,32,18.30
2014,07,10,09,33,18.40
2014,07,10,09,34,18.40
2014,07,10,09,35,18.50
2014,07,10,09,36,18.60
2014,07,10,09,37,18.60
2014,07,10,09,38,18.70
2014,07,10,09,39,18.70
2014,07,10,09,40,18.80
2014,07,10,09,41,18.90
2014,07,10,09,42,18.90
2014,07,10,09,43,18.90
2014,07,10,09,44,18.90
2014,07,10,09,45,18.90
2014,07,10,09,46,19.00
2014,07,10,09,47,19.00
2014,07,10,09,48,19.10
2014,07,10,09,49,19.10
2014,07,10,09,50,19.20
2014,07,10,09,51,19.20
2014,07,10,09,52,19.20
2014,07,10,09,53,19.20
2014,07,10,09,54,19.20
2014,07,10,09,55,19.20
2014,07,10,09,56,19.20
2014,07,10,09,57,19.20
2014,07,10,09,58,19.10
2014,07,10,09,59,19.10
2014,07,10,10,00,19.10
2014,07,10,10,01,19.10
2014,07,10,10,02,19.00
2014,07,10,10,03,19.00
2014,07,10,10,04,19.00
2014,07,10,10,05,19.10
2014,07,10,10,06,19.10
2014,07,10,10,07,19.10
2014,07,10,10,08,19.10
2014,07,10,10,09,19.20
2014,07,10,10,10,19.20
2014,07,10,10,11,19.20
2014,07,10,10,12,19.30
2014,07,10,10,13,19.30
2014,07,10,10,14,19.30
2014,07,10,10,15,19.30
2014,07,10,10,16,19.30
2014,07,10,10,17,19.30
2014,07,10,10,18,19.30
2014,07,10,10,19,19.30
2014,07,10,10,20,19.40
2014,07,10,10,21,19.40
2014,07,10,10,22,19.50
2014,07,10,10,23,19.60
2014,07,10,10,24,19.70
2014,07,10,10,25,19.70
2014,07,10,10,26,19.70
2014,07,10,10,27,19.80
2014,07,10,10,28,19.80
2014,07,10,10,29,19.80
2014,07,10,10,30,19.70
2014,07,10,10,31,19.70
2014,07,10,10,32,19.70
2014,07,10,10,33,19.70
2014,07,10,10,34,19.80
2014,07,10,10,35,19.80
2014,07,10,10,36,19.80
2014,07,10,10,37,19.80
2014,07,10,10,38,19.80
2014,07,10,10,39,19.80
2014,07,10,10,40,19.80
2014,07,10,10,41,19.80
2014,07,10,10,42,19.80
2014,07,10,10,43,19.80
2014,07,10,10,44,19.90
2014,07,10,10,45,19.90
2014,07,10,10,46,19.90
2014,07,10,10,47,19.90
2014,07,10,10,48,19.90
2014,07,10,10,49,19.90
2014,07,10,10,50,19.90
2014,07,10,10,51,20.00
2014,07,10,10,52,20.10
2014,07,10,10,53,20.20
2014,07,10,10,54,20.30
2014,07,10,10,55,20.40
2014,07,10,10,56,20.40
2014,07,10,10,57,20.40
2014,07,10,10,58,20.40
2014,07,10,10,59,20.30
2014,07,10,11,00,20.20
2014,07,10,11,01,20.10
2014,07,10,11,02,20.10
2014,07,10,11,03,20.00
2014,07,10,11,04,19.90
2014,07,10,11,05,19.90
2014,07,10,11,06,19.90
2014,07,10,11,07,19.90
2014,07,10,11,08,20.00
2014,07,10,11,09,20.10
2014,07,10,11,10,20.20
2014,07,10,11,11,20.30
2014,07,10,11,12,20.40
2014,07,10,11,13,20.50
2014,07,10,11,14,20.60
2014,07,10,11,15,20.70
2014,07,10,11,16,20.80
2014,07,10,11,17,20.80
2014,07,10,11,18,20.80
2014,07,10,11,19,20.80
2014,07,10,11,20,20.80
2014,07,10,11,21,20.70
2014,07,10,11,22,20.70
2014,07,10,11,23,20.70
2014,07,10,11,24,20.70
2014,07,10,11,25,20.70
2014,07,10,11,26,20.70
2014,07,10,11,27,20.70
2014,07,10,11,28,20.60
2014,07,10,11,29,20.60
2014,07,10,11,30,20.60
2014,07,10,11,31,20.50
2014,07,10,11,32,20.50
2014,07,10,11,33,20.50
2014,07,10,11,34,20.40
2014,07,10,11,35,20.40
2014,07,10,11,36,20.40
2014,07,10,11,37,20.30
2014,07,10,11,38,20.30
2014,07,10,11,39,20.30
2014,07,10,11,40,20.30
2014,07,10,11,41,20.30
2014,07,10,11,42,20.30
2014,07,10,11,43,20.30
2014,07,10,11,44,20.40
2014,07,10,11,45,20.40
2014,07,10,11,46,20.40
2014,07,10,11,47,20.40
2014,07,10,11,48,20.50
2014,07,10,11,49,20.60
2014,07,10,11,50,20.70
2014,07,10,11,51,20.70
2014,07,10,11,52,20.80
2014,07,10,11,53,20.80
2014,07,10,11,54,20.80
2014,07,10,11,55,20.90
2014,07,10,11,56,20.90
2014,07,10,11,57,20.90
2014,07,10,11,58,21.10
2014,07,10,11,59,21.20
2014,07,10,12,00,21.20
2014,07,10,12,01,21.20
2014,07,10,12,02,21.20
2014,07,10,12,03,21.20
2014,07,10,12,04,21.10
2014,07,10,12,05,21.10
2014,07,10,12,06,21.10
2014,07,10,12,07,21.10
2014,07,10,12,08,21.10
2014,07,10,12,09,21.10
2014,07,10,12,10,21.10
2014,07,10,12,11,21.20
2014,07,10,12,12,21.30
2014,07,10,12,13,21.30
2014,07,10,12,14,21.40
2014,07,10,12,15,21.40
2014,07,10,12,16,21.40
2014,07,10,12,17,21.50
2014,07,10,12,18,21.50
2014,07,10,12,19,21.50
2014,07,10,12,20,21.60
2014,07,10,12,21,21.60
2014,07,10,12,22,21.60
2014,07,10,12,23,21.80
2014,07,10,12,24,21.90
2014,07,10,12,25,22.00
2014,07,10,12,26,22.10
2014,07,10,12,27,22.10
2014,07,10,12,28,22.20
2014,07,10,12,29,22.20
2014,07,10,12,30,22.30
2014,07,10,12,31,22.30
2014,07,10,12,32,22.50
2014,07,10,12,33,22.50
2014,07,10,12,34,22.60
2014,07,10,12,35,22.60
2014,07,10,12,36,22.50
2014,07,10,12,37,22.60
2014,07,10,12,38,22.60
2014,07,10,12,39,22.50
2014,07,10,12,40,22.50
2014,07,10,12,41,22.50
2014,07,10,12,42,22.60
2014,07,10,12,43,22.70
2014,07,10,12,44,22.70
2014,07,10,12,45,22.70
2014,07,10,12,46,22.70
2014,07,10,12,47,22.70
2014,07,10,12,48,22.70
2014,07,10,12,49,22.70
2014,07,10,12,50,22.80
2014,07,10,12,51,22.80
2014,07,10,12,52,22.90
2014,07,10,12,53,22.90
2014,07,10,12,54,22.90
2014,07,10,12,55,22.90
2014,07,10,12,56,22.90
2014,07,10,12,57,22.80
2014,07,10,12,58,22.80
2014,07,10,12,59,22.70
2014,07,10,13,00,22.60
2014,07,10,13,01,22.60
2014,07,10,13,02,22.50
2014,07,10,13,03,22.40
2014,07,10,13,04,22.40
2014,07,10,13,05,22.30
2014,07,10,13,06,22.30
2014,07,10,13,07,22.20
2014,07,10,13,08,22.30
2014,07,10,13,09,22.30
2014,07,10,13,10,22.40
2014,07,10,13,11,22.40
2014,07,10,13,12,22.50
2014,07,10,13,13,22.60
2014,07,10,13,14,22.70
2014,07,10,13,15,22.70
2014,07,10,13,16,22.80
2014,07,10,13,17,22.80
2014,07,10,13,18,23.00
2014,07,10,13,19,23.20
2014,07,10,13,20,23.30
2014,07,10,13,21,23.50
2014,07,10,13,22,23.50
2014,07,10,13,23,23.60
2014,07,10,13,24,23.50
2014,07,10,13,25,23.50
2014,07,10,13,26,23.50
2014,07,10,13,27,23.40
2014,07,10,13,28,23.40
2014,07,10,13,29,23.40
2014,07,10,13,30,23.40
2014,07,10,13,31,23.40
2014,07,10,13,32,23.40
2014,07,10,13,33,23.30
2014,07,10,13,34,23.20
2014,07,10,13,35,23.10
2014,07,10,13,36,23.00
2014,07,10,13,37,22.90
2014,07,10,13,38,22.80
2014,07,10,13,39,22.80
2014,07,10,13,40,22.70
2014,07,10,13,41,22.70
2014,07,10,13,42,22.70
2014,07,10,13,43,22.70
2014,07,10,13,44,22.60
2014,07,10,13,45,22.50
2014,07,10,13,46,22.50
2014,07,10,13,47,22.60
2014,07,10,13,48,22.60
2014,07,10,13,49,22.60
2014,07,10,13,50,22.60
2014,07,10,13,51,22.70
2014,07,10,13,52,22.90
2014,07,10,13,53,22.90
2014,07,10,13,54,23.00
2014,07,10,13,55,23.00
2014,07,10,13,56,23.10
2014,07,10,13,57,23.20
2014,07,10,13,58,23.30
2014,07,10,13,59,23.30
2014,07,10,14,00,23.40
2014,07,10,14,01,23.50
2014,07,10,14,02,23.50
2014,07,10,14,03,23.40
2014,07,10,14,04,23.40
2014,07,10,14,05,23.30
2014,07,10,14,06,23.20
2014,07,10,14,07,23.20
2014,07,10,14,08,23.20
2014,07,10,14,09,23.20
2014,07,10,14,10,23.20
2014,07,10,14,11,23.20
2014,07,10,14,12,23.20
2014,07,10,14,13,23.20
2014,07,10,14,14,23.20
2014,07,10,14,15,23.20
2014,07,10,14,16,23.20
2014,07,10,14,17,23.20
2014,07,10,14,18,23.10
2014,07,10,14,19,23.10
2014,07,10,14,20,23.00
2014,07,10,14,21,23.00
2014,07,10,14,22,23.00
2014,07,10,14,23,23.00
2014,07,10,14,24,23.00
2014,07,10,14,25,23.00
2014,07,10,14,26,22.90
2014,07,10,14,27,22.90
2014,07,10,14,28,22.90
2014,07,10,14,29,22.90
2014,07,10,14,30,22.90
2014,07,10,14,31,22.90
2014,07,10,14,32,22.90
2014,07,10,14,33,22.90
2014,07,10,14,34,23.00
2014,07,10,14,35,23.20
2014,07,10,14,36,23.20
2014,07,10,14,37,23.30
2014,07,10,14,38,23.30
2014,07,10,14,39,23.20
2014,07,10,14,40,23.20
2014,07,10,14,41,23.20
2014,07,10,14,42,23.20
2014,07,10,14,43,23.20
2014,07,10,14,44,23.20
2014,07,10,14,45,23.20
2014,07,10,14,46,23.30
2014,07,10,14,47,23.40
2014,07,10,14,48,23.40
2014,07,10,14,49,23.50
2014,07,10,14,50,23.60
2014,07,10,14,51,23.70
2014,07,10,14,52,23.80
2014,07,10,14,53,24.00
2014,07,10,14,54,24.10
2014,07,10,14,55,24.10
2014,07,10,14,56,24.20
2014,07,10,14,57,24.20
2014,07,10,14,58,24.20
2014,07,10,14,59,24.20
2014,07,10,15,00,24.20
2014,07,10,15,01,24.30
2014,07,10,15,02,24.30
2014,07,10,15,03,24.30
2014,07,10,15,04,24.40
2014,07,10,15,05,24.40
2014,07,10,15,06,24.40
2014,07,10,15,07,24.30
2014,07,10,15,08,24.30
2014,07,10,15,09,24.30
2014,07,10,15,10,24.30
2014,07,10,15,11,24.40
2014,07,10,15,12,24.40
2014,07,10,15,13,24.40
2014,07,10,15,14,24.40
2014,07,10,15,15,24.40
2014,07,10,15,16,24.40
2014,07,10,15,17,24.40
2014,07,10,15,18,24.40
2014,07,10,15,19,24.30
2014,07,10,15,20,24.30
2014,07,10,15,21,24.20
2014,07,10,15,22,24.20
2014,07,10,15,23,24.30
2014,07,10,15,24,24.30
2014,07,10,15,25,24.40
2014,07,10,15,26,24.40
2014,07,10,15,27,24.50
2014,07,10,15,28,24.60
2014,07,10,15,29,24.60
2014,07,10,15,30,24.60
2014,07,10,15,31,24.70
2014,07,10,15,32,24.70
2014,07,10,15,33,24.80
2014,07,10,15,34,24.80
2014,07,10,15,35,24.70
2014,07,10,15,36,24.80
2014,07,10,15,37,24.70
2014,07,10,15,38,24.70
2014,07,10,15,39,24.80
2014,07,10,15,40,24.90
2014,07,10,15,41,25.00
2014,07,10,15,42,25.00
2014,07,10,15,43,25.10
2014,07,10,15,44,25.20
2014,07,10,15,45,25.40
2014,07,10,15,46,25.40
2014,07,10,15,47,25.50
2014,07,10,15,48,25.50
2014,07,10,15,49,25.40
2014,07,10,15,50,25.40
2014,07,10,15,51,25.40
2014,07,10,15,52,25.40
2014,07,10,15,53,25.40
2014,07,10,15,54,25.40
2014,07,10,15,55,25.40
2014,07,10,15,56,25.50
2014,07,10,15,57,25.50
2014,07,10,15,58,25.60
2014,07,10,15,59,25.70
2014,07,10,16,00,25.70
2014,07,10,16,01,25.70
2014,07,10,16,02,25.70
2014,07,10,16,03,25.70
2014,07,10,16,04,25.80
2014,07,10,16,05,25.90
2014,07,10,16,06,25.90
2014,07,10,16,07,25.90
2014,07,10,16,08,26.00
2014,07,10,16,09,26.00
2014,07,10,16,10,25.90
2014,07,10,16,11,25.80
2014,07,10,16,12,25.70
2014,07,10,16,13,25.70
2014,07,10,16,14,25.70
2014,07,10,16,15,25.60
2014,07,10,16,16,25.50
2014,07,10,16,17,25.50
2014,07,10,16,18,25.50
2014,07,10,16,19,25.50
2014,07,10,16,20,25.40
2014,07,10,16,21,25.50
2014,07,10,16,22,25.60
2014,07,10,16,23,25.70
2014,07,10,16,24,25.80
2014,07,10,16,25,25.80
2014,07,10,16,26,25.80
2014,07,10,16,27,25.70
2014,07,10,16,28,25.70
2014,07,10,16,29,25.80
2014,07,10,16,30,25.80
2014,07,10,16,31,25.80
2014,07,10,16,32,25.80
2014,07,10,16,33,25.80
2014,07,10,16,34,25.80
2014,07,10,16,35,25.90
2014,07,10,16,36,25.90
2014,07,10,16,37,25.90
2014,07,10,16,38,25.90
2014,07,10,16,39,25.90
2014,07,10,16,40,25.90
2014,07,10,16,41,25.90
2014,07,10,16,42,25.90
2014,07,10,16,43,26.00
2014,07,10,16,44,26.00
2014,07,10,16,45,26.10
2014,07,10,16,46,26.00
2014,07,10,16,47,26.00
2014,07,10,16,48,26.00
2014,07,10,16,49,25.90
2014,07,10,16,50,25.80
2014,07,10,16,51,25.80
2014,07,10,16,52,25.70
2014,07,10,16,53,25.70
2014,07,10,16,54,25.60
2014,07,10,16,55,25.50
2014,07,10,16,56,25.50
2014,07,10,16,57,25.40
2014,07,10,16,58,25.40
2014,07,10,16,59,25.30
2014,07,10,17,00,25.30
2014,07,10,17,01,25.20
2014,07,10,17,02,25.20
2014,07,10,17,03,25.20
2014,07,10,17,04,25.20
2014,07,10,17,05,25.20
2014,07,10,17,06,25.20
2014,07,10,17,07,25.20
2014,07,10,17,08,25.30
2014,07,10,17,09,25.30
2014,07,10,17,10,25.30
2014,07,10,17,11,25.30
2014,07,10,17,12,25.30
2014,07,10,17,13,25.30
2014,07,10,17,14,25.40
2014,07,10,17,15,25.40
2014,07,10,17,16,25.50
2014,07,10,17,17,25.60
2014,07,10,17,18,25.70
2014,07,10,17,19,25.80